| time (UTC) | temp F | wind direction | speed MPH | gust MPH | rain 1hr in | rain 24hr in | rain mn in | humidity % | barometer mb |
| 20260503205520 | 52 | 0.0 | 2.0 | 0.00 | 0.01 | 0.01 | 87 | 1011.8 | |
| 20260503204526 | 52 | 270 | 1.0 | 4.0 | 0.00 | 0.01 | 0.01 | 87 | 1011.8 |
| 20260503203544 | 52 | 270 | 1.0 | 3.0 | 0.00 | 0.01 | 0.01 | 87 | 1011.8 |
| 20260503202520 | 53 | 225 | 1.0 | 2.0 | 0.00 | 0.01 | 0.01 | 86 | 1011.7 |
| 20260503201519 | 53 | 225 | 2.0 | 5.0 | 0.00 | 0.01 | 0.01 | 85 | 1011.4 |
| 20260503200519 | 54 | 225 | 3.0 | 7.0 | 0.00 | 0.01 | 0.01 | 85 | 1011.3 |
| 20260503195543 | 54 | 225 | 2.0 | 4.0 | 0.00 | 0.01 | 0.01 | 84 | 1011.2 |
| 20260503194539 | 55 | 225 | 2.0 | 4.0 | 0.00 | 0.01 | 0.01 | 84 | 1011.2 |
| 20260503193519 | 55 | 203 | 2.0 | 4.0 | 0.00 | 0.01 | 0.01 | 83 | 1011.0 |
| 20260503192519 | 56 | 225 | 3.0 | 5.0 | 0.00 | 0.02 | 0.01 | 82 | 1010.9 |
| 20260503191519 | 57 | 225 | 2.0 | 4.0 | 0.00 | 0.02 | 0.01 | 81 | 1010.6 |
| 20260503190534 | 57 | 0.0 | 3.0 | 0.00 | 0.02 | 0.01 | 80 | 1010.8 | |
| 20260503185546 | 58 | 0.0 | 1.0 | 0.00 | 0.02 | 0.01 | 79 | 1010.7 | |
| 20260503184526 | 58 | 225 | 2.0 | 3.0 | 0.00 | 0.02 | 0.01 | 78 | 1010.6 |
| 20260503183521 | 59 | 225 | 3.0 | 4.0 | 0.00 | 0.03 | 0.01 | 78 | 1010.7 |
| 20260503182519 | 59 | 203 | 3.0 | 6.0 | 0.00 | 0.04 | 0.01 | 77 | 1010.4 |
| 20260503181519 | 60 | 225 | 4.0 | 6.0 | 0.00 | 0.04 | 0.01 | 77 | 1010.6 |
| 20260503180520 | 59 | 225 | 3.0 | 5.0 | 0.00 | 0.04 | 0.01 | 78 | 1010.6 |
| 20260503175539 | 59 | 203 | 3.0 | 5.0 | 0.00 | 0.05 | 0.01 | 77 | 1010.5 |
| 20260503174519 | 59 | 180 | 2.0 | 4.0 | 0.00 | 0.06 | 0.01 | 77 | 1010.4 |
| 20260503173520 | 59 | 180 | 2.0 | 5.0 | 0.00 | 0.06 | 0.01 | 77 | 1010.6 |
| 20260503172519 | 59 | 180 | 3.0 | 5.0 | 0.00 | 0.07 | 0.01 | 78 | 1010.5 |
| 20260503171519 | 59 | 203 | 5.0 | 7.0 | 0.00 | 0.09 | 0.01 | 77 | 1010.4 |
| 20260503170520 | 59 | 203 | 6.0 | 10.0 | 0.00 | 0.10 | 0.01 | 76 | 1010.3 |
| 20260503150519 | 62 | 225 | 6.0 | 10.0 | 0.00 | 0.46 | 0.01 | 77 | 1010.6 |
| 20260503130517 | 60 | 203 | 3.0 | 6.0 | 0.00 | 0.72 | 0.01 | 74 | 1010.8 |
| 20260503110517 | 62 | 90 | 2.0 | 5.0 | 0.00 | 0.72 | 0.01 | 78 | 1011.1 |
| 20260503081517 | 54 | 113 | 2.0 | 4.0 | 0.00 | 0.72 | 0.01 | 90 | 1011.2 |
| 20260503080518 | 55 | 135 | 2.0 | 5.0 | 0.00 | 0.72 | 0.01 | 91 | 1011.3 |
| 20260503072518 | 54 | 68 | 2.0 | 4.0 | 0.00 | 0.72 | 0.01 | 93 | 1011.2 |
| 20260503071518 | 55 | 68 | 2.0 | 5.0 | 0.00 | 0.72 | 0.01 | 95 | 1011.2 |
| 20260503070518 | 54 | 90 | 2.0 | 5.0 | 0.00 | 0.72 | 0.01 | 95 | 1011.1 |
| 20260503054518 | 51 | 0.0 | 0.0 | 0.00 | 0.72 | 0.01 | 94 | 1010.7 | |
| 20260503053518 | 51 | 0.0 | 0.0 | 0.00 | 0.72 | 0.01 | 93 | 1010.8 | |
| 20260503052518 | 51 | 0.0 | 0.0 | 0.00 | 0.72 | 0.01 | 93 | 1010.6 | |
| 20260503051518 | 51 | 0.0 | 0.0 | 0.00 | 0.72 | 0.01 | 93 | 1010.7 | |
| 20260503050518 | 51 | 248 | 1.0 | 2.0 | 0.00 | 0.72 | 0.01 | 93 | 1010.6 |
| 20260503045518 | 51 | 248 | 1.0 | 2.0 | 0.00 | 0.72 | 0.01 | 93 | 1010.3 |
| 20260503044654 | 51 | 0.0 | 2.0 | 0.00 | 0.72 | 0.01 | 93 | 1010.3 | |
| 20260503043543 | 51 | 248 | 2.0 | 3.0 | 0.00 | 0.72 | 0.01 | 93 | 1010.3 |
| 20260503042518 | 51 | 248 | 1.0 | 3.0 | 0.00 | 0.72 | 0.01 | 93 | 1010.4 |
| 20260503041518 | 51 | 0.0 | 2.0 | 0.00 | 0.72 | 0.01 | 93 | 1010.5 | |
| 20260503040520 | 52 | 248 | 1.0 | 2.0 | 0.00 | 0.72 | 0.01 | 93 | 1010.5 |
| 20260503035524 | 52 | 270 | 2.0 | 3.0 | 0.00 | 0.72 | 0.01 | 93 | 1010.5 |
| 20260503034518 | 52 | 248 | 1.0 | 4.0 | 0.00 | 0.72 | 0.01 | 93 | 1010.6 |
| 20260503033540 | 52 | 248 | 1.0 | 2.0 | 0.00 | 0.72 | 0.01 | 93 | 1010.7 |
| 20260503032539 | 52 | 248 | 2.0 | 3.0 | 0.00 | 0.72 | 0.01 | 93 | 1010.8 |
| 20260503031540 | 52 | 248 | 1.0 | 2.0 | 0.00 | 0.72 | 0.01 | 93 | 1010.7 |
| 20260503030520 | 52 | 248 | 2.0 | 3.0 | 0.00 | 0.72 | 0.01 | 93 | 1010.9 |
| 20260503025520 | 52 | 248 | 1.0 | 3.0 | 0.00 | 0.72 | 0.01 | 93 | 1010.7 |
| 20260503024520 | 52 | 248 | 1.0 | 3.0 | 0.00 | 0.72 | 0.01 | 93 | 1010.7 |
| 20260503023518 | 52 | 248 | 1.0 | 2.0 | 0.00 | 0.72 | 0.01 | 93 | 1010.7 |
| 20260503022519 | 52 | 248 | 1.0 | 3.0 | 0.00 | 0.72 | 0.01 | 93 | 1011.0 |
| 20260503021519 | 52 | 248 | 2.0 | 4.0 | 0.00 | 0.72 | 0.01 | 93 | 1011.0 |
| 20260503020521 | 52 | 248 | 1.0 | 3.0 | 0.00 | 0.72 | 0.01 | 93 | 1010.9 |
| 20260503015525 | 52 | 248 | 2.0 | 5.0 | 0.00 | 0.72 | 0.01 | 93 | 1011.0 |
| 20260503014519 | 52 | 248 | 2.0 | 3.0 | 0.00 | 0.72 | 0.01 | 93 | 1011.0 |
| 20260503013531 | 52 | 270 | 3.0 | 6.0 | 0.00 | 0.72 | 0.01 | 93 | 1011.0 |
| 20260503012520 | 52 | 0.0 | 3.0 | 0.01 | 0.72 | 0.01 | 93 | 1011.1 | |
| 20260503011524 | 52 | 248 | 2.0 | 3.0 | 0.01 | 0.72 | 0.01 | 93 | 1011.0 |
| 20260503010521 | 52 | 225 | 2.0 | 3.0 | 0.01 | 0.72 | 0.01 | 93 | 1011.2 |
| 20260503005540 | 52 | 225 | 1.0 | 2.0 | 0.01 | 0.72 | 0.01 | 93 | 1011.4 |
| 20260503003519 | 52 | 0.0 | 2.0 | 0.01 | 0.72 | 0.01 | 93 | 1011.3 | |
| 20260503002520 | 52 | 225 | 1.0 | 3.0 | 0.00 | 0.72 | 0.00 | 93 | 1011.3 |
| 20260503001521 | 52 | 225 | 1.0 | 2.0 | 0.00 | 0.72 | 0.00 | 93 | 1011.6 |
| 20260503000520 | 52 | 225 | 1.0 | 3.0 | 0.00 | 0.72 | 0.00 | 93 | 1011.6 |
| 20260502235519 | 52 | 0.0 | 0.0 | 0.00 | 0.72 | 0.00 | 93 | 1011.7 | |
| 20260502234523 | 52 | 0.0 | 0.0 | 0.00 | 0.72 | 0.00 | 92 | 1011.7 | |
| 20260502233520 | 52 | 0.0 | 0.0 | 0.00 | 0.72 | 0.00 | 93 | 1011.8 | |
| 20260502232522 | 52 | 0.0 | 0.0 | 0.00 | 0.72 | 0.00 | 93 | 1011.8 | |
| 20260502231521 | 52 | 0.0 | 0.0 | 0.00 | 0.72 | 0.00 | 93 | 1011.8 | |
| 20260502230545 | 52 | 0.0 | 2.0 | 0.00 | 0.72 | 0.00 | 93 | 1011.8 | |
| 20260502225520 | 52 | 225 | 1.0 | 2.0 | 0.00 | 0.72 | 0.72 | 92 | 1011.9 |
| 20260502224520 | 52 | 248 | 1.0 | 3.0 | 0.00 | 0.72 | 0.72 | 93 | 1012.1 |
| 20260502223540 | 52 | 0.0 | 0.0 | 0.00 | 0.72 | 0.72 | 92 | 1011.9 | |
| 20260502222518 | 52 | 0.0 | 0.0 | 0.00 | 0.72 | 0.72 | 92 | 1011.9 | |
| 20260502221539 | 52 | 0.0 | 0.0 | 0.00 | 0.72 | 0.72 | 92 | 1012.2 | |
| 20260502220523 | 52 | 0.0 | 0.0 | 0.00 | 0.72 | 0.72 | 92 | 1012.2 | |
| 20260502215519 | 52 | 0.0 | 1.0 | 0.00 | 0.72 | 0.72 | 92 | 1012.2 | |
| 20260502214520 | 53 | 0.0 | 0.0 | 0.00 | 0.72 | 0.72 | 92 | 1012.2 | |
| 20260502213614 | 53 | 0.0 | 1.0 | 0.00 | 0.72 | 0.72 | 92 | 1012.2 | |
| 20260502212540 | 53 | 0.0 | 2.0 | 0.00 | 0.72 | 0.72 | 92 | 1012.2 | |
| 20260502211519 | 53 | 0.0 | 1.0 | 0.00 | 0.72 | 0.72 | 92 | 1012.3 | |
| 20260502210519 | 53 | 248 | 1.0 | 3.0 | 0.00 | 0.72 | 0.72 | 92 | 1012.3 |